Time,TemperatureF,DewpointF,PressureIn,WindDirection,WindDirectionDegrees,WindSpeedMPH,WindSpeedGustMPH,Humidity,HourlyPrecipIn,Conditions,Clouds,dailyrainin,SoftwareType,DateUTC
2013-03-10 00:00:00,43.3,39.4,30.41,NW,326,1.0,3.0,86,0.00,,,0.00,WeatherCatV1.13B119,2013-03-10 08:00:00,
2013-03-10 00:05:00,43.2,39.0,30.40,NNW,335,1.0,4.0,85,0.00,,,0.00,WeatherCatV1.13B119,2013-03-10 08:05:00,
2013-03-10 00:10:00,43.3,39.1,30.40,NNE,32,4.0,5.0,85,0.00,,,0.00,WeatherCatV1.13B119,2013-03-10 08:10:00,
2013-03-10 00:15:00,43.4,39.2,30.40,WNW,295,1.0,2.0,85,0.00,,,0.00,WeatherCatV1.13B119,2013-03-10 08:15:00,
2013-03-10 00:20:00,43.5,39.3,30.40,NNW,345,1.0,2.0,85,0.00,,,0.00,WeatherCatV1.13B119,2013-03-10 08:20:00,
2013-03-10 00:25:00,43.4,39.2,30.40,NNW,345,1.0,4.0,85,0.00,,,0.00,WeatherCatV1.13B119,2013-03-10 08:25:00,
2013-03-10 00:30:00,43.4,39.2,30.40,North,354,3.0,5.0,85,0.00,,,0.00,WeatherCatV1.13B119,2013-03-10 08:30:00,
2013-03-10 00:35:00,43.4,38.9,30.40,WNW,294,1.0,2.0,84,0.00,,,0.00,WeatherCatV1.13B119,2013-03-10 08:35:00,
2013-03-10 00:40:00,43.5,39.0,30.40,NNW,337,1.0,3.0,84,0.00,,,0.00,WeatherCatV1.13B119,2013-03-10 08:40:00,
2013-03-10 00:45:00,43.5,39.0,30.40,NW,305,1.0,2.0,84,0.00,,,0.00,WeatherCatV1.13B119,2013-03-10 08:45:00,
2013-03-10 00:50:00,43.5,39.0,30.40,WSW,253,0.0,1.0,84,0.00,,,0.00,WeatherCatV1.13B119,2013-03-10 08:50:00,
2013-03-10 00:55:00,43.5,39.0,30.41,ENE,70,0.0,0.0,84,0.00,,,0.00,WeatherCatV1.13B119,2013-03-10 08:55:00,
2013-03-10 01:00:00,43.3,39.1,30.41,WNW,297,0.0,1.0,85,0.00,,,0.00,WeatherCatV1.13B119,2013-03-10 09:00:00,
2013-03-10 01:05:00,43.1,38.9,30.41,West,274,1.0,3.0,85,0.00,,,0.00,WeatherCatV1.13B119,2013-03-10 09:05:00,
2013-03-10 01:10:00,42.9,39.0,30.41,West,259,0.0,1.0,86,0.00,,,0.00,WeatherCatV1.13B119,2013-03-10 09:10:00,
2013-03-10 01:15:00,43.0,39.1,30.41,NW,325,0.0,2.0,86,0.00,,,0.00,WeatherCatV1.13B119,2013-03-10 09:15:00,
2013-03-10 01:20:00,43.0,39.1,30.41,WNW,300,0.0,3.0,86,0.00,,,0.00,WeatherCatV1.13B119,2013-03-10 09:20:00,
2013-03-10 01:25:00,43.0,39.1,30.41,North,355,1.0,3.0,86,0.00,,,0.00,WeatherCatV1.13B119,2013-03-10 09:25:00,
2013-03-10 01:30:00,43.1,38.9,30.41,NW,308,0.0,3.0,85,0.00,,,0.00,WeatherCatV1.13B119,2013-03-10 09:30:00,
2013-03-10 01:35:00,43.1,38.9,30.41,West,279,1.0,2.0,85,0.00,,,0.00,WeatherCatV1.13B119,2013-03-10 09:35:00,
2013-03-10 01:40:00,43.1,38.9,30.41,WNW,293,0.0,2.0,85,0.00,,,0.00,WeatherCatV1.13B119,2013-03-10 09:40:00,
2013-03-10 01:45:00,43.1,38.9,30.41,NW,319,0.0,1.0,85,0.00,,,0.00,WeatherCatV1.13B119,2013-03-10 09:45:00,
2013-03-10 01:50:00,43.1,38.9,30.41,NW,307,0.0,2.0,85,0.00,,,0.00,WeatherCatV1.13B119,2013-03-10 09:50:00,
2013-03-10 01:55:00,43.1,38.9,30.41,NNW,339,0.0,3.0,85,0.00,,,0.00,WeatherCatV1.13B119,2013-03-10 09:55:00,
2013-03-10 03:00:00,43.1,38.9,30.41,NW,321,0.0,1.0,85,0.00,,,0.00,WeatherCatV1.13B119,2013-03-10 10:00:00,
2013-03-10 03:05:00,43.2,39.0,30.41,NW,305,0.0,1.0,85,0.00,,,0.00,WeatherCatV1.13B119,2013-03-10 10:05:00,
2013-03-10 03:10:00,43.2,39.0,30.41,NW,305,0.0,0.0,85,0.00,,,0.00,WeatherCatV1.13B119,2013-03-10 10:10:00,
2013-03-10 03:15:00,43.2,39.0,30.41,NNW,342,1.0,1.0,85,0.00,,,0.00,WeatherCatV1.13B119,2013-03-10 10:15:00,
2013-03-10 03:20:00,43.1,38.9,30.41,East,91,0.0,1.0,85,0.00,,,0.00,WeatherCatV1.13B119,2013-03-10 10:20:00,
2013-03-10 03:25:00,43.0,38.8,30.41,NNW,331,1.0,1.0,85,0.00,,,0.00,WeatherCatV1.13B119,2013-03-10 10:25:00,
2013-03-10 03:30:00,42.9,39.0,30.41,NW,310,0.0,2.0,86,0.00,,,0.00,WeatherCatV1.13B119,2013-03-10 10:30:00,
2013-03-10 03:35:00,43.0,38.8,30.41,NW,319,2.0,3.0,85,0.00,,,0.00,WeatherCatV1.13B119,2013-03-10 10:35:00,
2013-03-10 03:40:00,43.1,38.9,30.41,NNW,328,1.0,4.0,85,0.00,,,0.00,WeatherCatV1.13B119,2013-03-10 10:40:00,
2013-03-10 03:45:00,43.2,39.0,30.41,NW,319,0.0,2.0,85,0.00,,,0.00,WeatherCatV1.13B119,2013-03-10 10:45:00,
2013-03-10 03:50:00,43.3,38.8,30.41,NNW,335,1.0,1.0,84,0.00,,,0.00,WeatherCatV1.13B119,2013-03-10 10:50:00,
2013-03-10 03:55:00,43.4,38.9,30.41,NNW,336,0.0,1.0,84,0.00,,,0.00,WeatherCatV1.13B119,2013-03-10 10:55:00,
2013-03-10 04:00:00,43.3,38.8,30.41,ENE,70,0.0,1.0,84,0.00,,,0.00,WeatherCatV1.13B119,2013-03-10 11:00:00,
2013-03-10 04:05:00,43.3,39.1,30.41,NW,322,0.0,2.0,85,0.00,,,0.00,WeatherCatV1.13B119,2013-03-10 11:05:00,
2013-03-10 04:10:00,42.9,39.0,30.41,NNW,348,0.0,1.0,86,0.00,,,0.00,WeatherCatV1.13B119,2013-03-10 11:10:00,
2013-03-10 04:15:00,42.7,38.8,30.41,NNW,347,0.0,0.0,86,0.00,,,0.00,WeatherCatV1.13B119,2013-03-10 11:15:00,
2013-03-10 04:20:00,42.6,38.7,30.41,NNW,347,0.0,0.0,86,0.00,,,0.00,WeatherCatV1.13B119,2013-03-10 11:20:00,
2013-03-10 04:25:00,42.7,38.5,30.41,NNW,344,0.0,1.0,85,0.00,,,0.00,WeatherCatV1.13B119,2013-03-10 11:25:00,
2013-03-10 04:30:00,43.0,38.2,30.41,NNW,345,0.0,0.0,83,0.00,,,0.00,WeatherCatV1.13B119,2013-03-10 11:30:00,
2013-03-10 04:35:00,43.2,38.4,30.41,NNW,345,0.0,0.0,83,0.00,,,0.00,WeatherCatV1.13B119,2013-03-10 11:35:00,
2013-03-10 04:40:00,43.3,38.5,30.40,NNE,27,0.0,0.0,83,0.00,,,0.00,WeatherCatV1.13B119,2013-03-10 11:40:00,
2013-03-10 04:45:00,43.2,38.7,30.41,NW,305,1.0,1.0,84,0.00,,,0.00,WeatherCatV1.13B119,2013-03-10 11:45:00,
2013-03-10 04:50:00,42.9,38.4,30.40,NW,310,0.0,0.0,84,0.00,,,0.00,WeatherCatV1.13B119,2013-03-10 11:50:00,
2013-03-10 04:55:00,42.9,38.7,30.41,NW,318,0.0,1.0,85,0.00,,,0.00,WeatherCatV1.13B119,2013-03-10 11:55:00,
2013-03-10 05:00:00,42.7,38.5,30.41,NNE,13,0.0,1.0,85,0.00,,,0.00,WeatherCatV1.13B119,2013-03-10 12:00:00,
2013-03-10 05:05:00,42.7,38.5,30.41,East,84,0.0,0.0,85,0.00,,,0.00,WeatherCatV1.13B119,2013-03-10 12:05:00,
2013-03-10 05:10:00,42.7,38.8,30.41,NW,305,0.0,0.0,86,0.00,,,0.00,WeatherCatV1.13B119,2013-03-10 12:10:00,
2013-03-10 05:15:00,42.6,38.7,30.40,NW,305,0.0,0.0,86,0.00,,,0.00,WeatherCatV1.13B119,2013-03-10 12:15:00,
2013-03-10 05:20:00,42.6,39.0,30.40,NNW,331,0.0,0.0,87,0.00,,,0.00,WeatherCatV1.13B119,2013-03-10 12:20:00,
2013-03-10 05:25:00,42.5,38.9,30.40,West,271,0.0,1.0,87,0.00,,,0.00,WeatherCatV1.13B119,2013-03-10 12:25:00,
2013-03-10 05:30:00,42.3,39.0,30.40,NNW,336,2.0,2.0,88,0.00,,,0.00,WeatherCatV1.13B119,2013-03-10 12:30:00,
2013-03-10 05:35:00,42.3,39.0,30.40,North,354,2.0,2.0,88,0.00,,,0.00,WeatherCatV1.13B119,2013-03-10 12:35:00,
2013-03-10 05:40:00,42.4,39.1,30.40,NNW,331,0.0,1.0,88,0.00,,,0.00,WeatherCatV1.13B119,2013-03-10 12:40:00,
2013-03-10 05:45:00,42.4,39.1,30.40,NW,318,0.0,1.0,88,0.00,,,0.00,WeatherCatV1.13B119,2013-03-10 12:45:00,
2013-03-10 05:50:00,42.4,39.1,30.40,NW,318,0.0,0.0,88,0.00,,,0.00,WeatherCatV1.13B119,2013-03-10 12:50:00,
2013-03-10 05:55:00,42.4,39.1,30.40,NNW,339,1.0,1.0,88,0.00,,,0.00,WeatherCatV1.13B119,2013-03-10 12:55:00,
2013-03-10 06:00:00,42.3,39.0,30.40,ENE,62,0.0,1.0,88,0.00,,,0.00,WeatherCatV1.13B119,2013-03-10 13:00:00,
2013-03-10 06:05:00,42.2,39.2,30.40,WNW,290,0.0,1.0,89,0.00,,,0.00,WeatherCatV1.13B119,2013-03-10 13:05:00,
2013-03-10 06:10:00,42.1,39.1,30.40,NW,322,1.0,2.0,89,0.00,,,0.00,WeatherCatV1.13B119,2013-03-10 13:10:00,
2013-03-10 06:15:00,42.2,39.2,30.40,NNE,28,1.0,3.0,89,0.00,,,0.00,WeatherCatV1.13B119,2013-03-10 13:15:00,
2013-03-10 06:20:00,42.2,38.9,30.39,NNW,344,2.0,3.0,88,0.00,,,0.00,WeatherCatV1.13B119,2013-03-10 13:20:00,
2013-03-10 06:25:00,42.2,38.9,30.39,NNW,329,0.0,2.0,88,0.00,,,0.00,WeatherCatV1.13B119,2013-03-10 13:25:00,
2013-03-10 06:30:00,42.2,39.2,30.39,NNW,340,2.0,2.0,89,0.00,,,0.00,WeatherCatV1.13B119,2013-03-10 13:30:00,
2013-03-10 06:35:00,42.2,39.2,30.39,NW,310,1.0,1.0,89,0.00,,,0.00,WeatherCatV1.13B119,2013-03-10 13:35:00,
2013-03-10 06:40:00,42.2,39.2,30.39,North,354,0.0,1.0,89,0.00,,,0.00,WeatherCatV1.13B119,2013-03-10 13:40:00,
2013-03-10 06:45:00,42.0,39.0,30.39,WNW,297,0.0,1.0,89,0.00,,,0.00,WeatherCatV1.13B119,2013-03-10 13:45:00,
2013-03-10 06:50:00,42.0,39.0,30.39,East,85,0.0,1.0,89,0.00,,,0.00,WeatherCatV1.13B119,2013-03-10 13:50:00,
2013-03-10 06:51:00,41.9,38.9,30.39,East,84,0.0,2.0,89,0.00,,,0.00,WeatherCatV1.13B119,2013-03-10 13:51:00,
2013-03-10 06:56:00,41.8,38.8,30.39,ENE,65,2.0,4.0,89,0.00,,,0.00,WeatherCatV1.13B119,2013-03-10 13:56:00,
2013-03-10 07:01:00,41.6,38.9,30.39,ENE,68,0.0,3.0,90,0.00,,,0.00,WeatherCatV1.13B119,2013-03-10 14:01:00,
2013-03-10 07:06:00,41.5,39.1,30.39,ENE,77,0.0,3.0,91,0.00,,,0.00,WeatherCatV1.13B119,2013-03-10 14:06:00,
2013-03-10 07:11:00,41.4,39.0,30.39,East,80,0.0,1.0,91,0.00,,,0.00,WeatherCatV1.13B119,2013-03-10 14:11:00,
2013-03-10 07:16:00,41.3,38.9,30.38,West,269,0.0,1.0,91,0.00,,,0.00,WeatherCatV1.13B119,2013-03-10 14:16:00,
2013-03-10 07:21:00,41.3,39.2,30.39,SSE,158,0.0,0.0,92,0.00,,,0.00,WeatherCatV1.13B119,2013-03-10 14:21:00,
2013-03-10 07:26:00,41.4,39.3,30.39,NNW,335,1.0,3.0,92,0.00,,,0.00,WeatherCatV1.13B119,2013-03-10 14:26:00,
2013-03-10 07:31:00,41.6,39.5,30.38,WNW,285,0.0,1.0,92,0.00,,,0.00,WeatherCatV1.13B119,2013-03-10 14:31:00,
2013-03-10 07:36:00,41.6,39.2,30.39,NW,326,0.0,1.0,91,0.00,,,0.00,WeatherCatV1.13B119,2013-03-10 14:36:00,
2013-03-10 07:41:00,41.6,39.5,30.39,WNW,285,0.0,1.0,92,0.00,,,0.00,WeatherCatV1.13B119,2013-03-10 14:41:00,
2013-03-10 07:46:00,41.6,39.5,30.39,WNW,293,1.0,2.0,92,0.00,,,0.00,WeatherCatV1.13B119,2013-03-10 14:46:00,
2013-03-10 07:51:00,41.5,39.4,30.39,NW,319,2.0,3.0,92,0.00,,,0.00,WeatherCatV1.13B119,2013-03-10 14:51:00,
2013-03-10 07:56:00,41.5,39.4,30.39,NNW,335,0.0,3.0,92,0.00,,,0.00,WeatherCatV1.13B119,2013-03-10 14:56:00,
2013-03-10 08:01:00,41.5,39.4,30.39,NNW,338,1.0,3.0,92,0.00,,,0.00,WeatherCatV1.13B119,2013-03-10 15:01:00,
2013-03-10 08:06:00,41.5,39.6,30.39,North,7,2.0,2.0,93,0.00,,,0.00,WeatherCatV1.13B119,2013-03-10 15:06:00,
2013-03-10 08:11:00,41.5,39.6,30.39,NW,318,0.0,2.0,93,0.00,,,0.00,WeatherCatV1.13B119,2013-03-10 15:11:00,
2013-03-10 08:16:00,41.6,39.5,30.39,NE,56,1.0,1.0,92,0.00,,,0.00,WeatherCatV1.13B119,2013-03-10 15:16:00,
2013-03-10 08:21:00,41.7,39.5,30.39,NW,305,0.0,1.0,92,0.00,,,0.00,WeatherCatV1.13B119,2013-03-10 15:21:00,
2013-03-10 08:26:00,41.8,39.6,30.39,NW,306,0.0,2.0,92,0.00,,,0.00,WeatherCatV1.13B119,2013-03-10 15:26:00,
2013-03-10 08:31:00,41.9,39.5,30.39,WNW,283,0.0,1.0,91,0.00,,,0.00,WeatherCatV1.13B119,2013-03-10 15:31:00,
2013-03-10 08:36:00,42.0,39.6,30.39,NW,318,0.0,1.0,91,0.00,,,0.00,WeatherCatV1.13B119,2013-03-10 15:36:00,
2013-03-10 08:41:00,42.1,39.4,30.39,NW,323,1.0,2.0,90,0.00,,,0.00,WeatherCatV1.13B119,2013-03-10 15:41:00,
2013-03-10 08:46:00,42.3,39.6,30.39,NNW,331,0.0,1.0,90,0.00,,,0.00,WeatherCatV1.13B119,2013-03-10 15:46:00,
2013-03-10 08:51:00,42.6,39.6,30.39,NNE,14,0.0,1.0,89,0.00,,,0.00,WeatherCatV1.13B119,2013-03-10 15:51:00,
2013-03-10 08:56:00,42.6,39.6,30.39,East,94,0.0,1.0,89,0.00,,,0.00,WeatherCatV1.13B119,2013-03-10 15:56:00,
2013-03-10 09:01:00,42.7,39.7,30.39,North,5,0.0,2.0,89,0.00,,,0.00,WeatherCatV1.13B119,2013-03-10 16:01:00,
2013-03-10 09:06:00,42.9,40.2,30.40,NNW,340,0.0,1.0,90,0.00,,,0.00,WeatherCatV1.13B119,2013-03-10 16:06:00,
2013-03-10 09:11:00,42.9,40.2,30.40,NW,305,0.0,0.0,90,0.00,,,0.00,WeatherCatV1.13B119,2013-03-10 16:11:00,
2013-03-10 09:16:00,43.0,40.3,30.40,NW,322,1.0,2.0,90,0.00,,,0.00,WeatherCatV1.13B119,2013-03-10 16:16:00,
2013-03-10 09:21:00,43.0,40.0,30.40,NW,315,0.0,1.0,89,0.00,,,0.00,WeatherCatV1.13B119,2013-03-10 16:21:00,
2013-03-10 09:26:00,43.1,40.1,30.40,NW,322,0.0,0.0,89,0.00,,,0.00,WeatherCatV1.13B119,2013-03-10 16:26:00,
2013-03-10 09:31:00,43.3,40.3,30.40,WNW,287,0.0,0.0,89,0.00,,,0.00,WeatherCatV1.13B119,2013-03-10 16:31:00,
2013-03-10 09:36:00,43.4,40.1,30.40,NNW,327,1.0,1.0,88,0.00,,,0.00,WeatherCatV1.13B119,2013-03-10 16:36:00,
2013-03-10 09:41:00,43.5,40.2,30.40,NW,319,0.0,0.0,88,0.00,,,0.00,WeatherCatV1.13B119,2013-03-10 16:41:00,
2013-03-10 09:46:00,43.6,40.6,30.40,North,351,0.0,1.0,89,0.00,,,0.00,WeatherCatV1.13B119,2013-03-10 16:46:00,
2013-03-10 09:51:00,43.6,40.6,30.40,WNW,285,0.0,0.0,89,0.00,,,0.00,WeatherCatV1.13B119,2013-03-10 16:51:00,
2013-03-10 09:56:00,43.7,40.7,30.40,WNW,284,0.0,0.0,89,0.00,,,0.00,WeatherCatV1.13B119,2013-03-10 16:56:00,
2013-03-10 10:01:00,43.7,40.7,30.40,NE,34,1.0,1.0,89,0.00,,,0.00,WeatherCatV1.13B119,2013-03-10 17:01:00,
2013-03-10 10:06:00,43.8,40.8,30.40,NW,319,0.0,1.0,89,0.00,,,0.00,WeatherCatV1.13B119,2013-03-10 17:06:00,
2013-03-10 10:11:00,43.9,40.6,30.40,NW,319,0.0,0.0,88,0.00,,,0.00,WeatherCatV1.13B119,2013-03-10 17:11:00,
2013-03-10 10:16:00,44.1,40.8,30.40,NW,322,0.0,1.0,88,0.00,,,0.00,WeatherCatV1.13B119,2013-03-10 17:16:00,
2013-03-10 10:21:00,44.2,40.6,30.40,NW,319,0.0,0.0,87,0.00,,,0.00,WeatherCatV1.13B119,2013-03-10 17:21:00,
2013-03-10 10:26:00,44.4,40.5,30.40,NW,322,0.0,0.0,86,0.00,,,0.00,WeatherCatV1.13B119,2013-03-10 17:26:00,
2013-03-10 10:31:00,44.6,40.7,30.40,North,4,0.0,1.0,86,0.00,,,0.00,WeatherCatV1.13B119,2013-03-10 17:31:00,
2013-03-10 10:36:00,44.8,40.6,30.39,North,4,0.0,0.0,85,0.00,,,0.00,WeatherCatV1.13B119,2013-03-10 17:36:00,
2013-03-10 10:41:00,44.8,39.6,30.39,North,4,0.0,1.0,82,0.00,,,0.00,WeatherCatV1.13B119,2013-03-10 17:41:00,
2013-03-10 10:46:00,45.1,40.9,30.39,ESE,114,0.0,1.0,85,0.00,,,0.00,WeatherCatV1.13B119,2013-03-10 17:46:00,
2013-03-10 10:51:00,45.0,41.1,30.39,SE,125,0.0,0.0,86,0.00,,,0.00,WeatherCatV1.13B119,2013-03-10 17:51:00,
2013-03-10 10:56:00,45.1,41.2,30.39,SE,125,0.0,0.0,86,0.00,,,0.00,WeatherCatV1.13B119,2013-03-10 17:56:00,
2013-03-10 11:01:00,45.0,40.5,30.38,South,177,1.0,2.0,84,0.00,,,0.00,WeatherCatV1.13B119,2013-03-10 18:01:00,
2013-03-10 11:06:00,45.0,40.8,30.38,SE,129,0.0,0.0,85,0.00,,,0.00,WeatherCatV1.13B119,2013-03-10 18:06:00,
2013-03-10 11:11:00,45.1,40.6,30.38,SSW,205,1.0,2.0,84,0.00,,,0.00,WeatherCatV1.13B119,2013-03-10 18:11:00,
2013-03-10 11:16:00,45.1,40.2,30.38,SW,228,0.0,1.0,83,0.00,,,0.00,WeatherCatV1.13B119,2013-03-10 18:16:00,
2013-03-10 11:21:00,45.0,40.2,30.38,WSW,243,0.0,2.0,83,0.00,,,0.00,WeatherCatV1.13B119,2013-03-10 18:21:00,
2013-03-10 11:26:00,45.0,40.2,30.39,SSE,150,0.0,1.0,83,0.00,,,0.00,WeatherCatV1.13B119,2013-03-10 18:26:00,
2013-03-10 11:31:00,45.1,40.2,30.39,SW,214,1.0,1.0,83,0.00,,,0.00,WeatherCatV1.13B119,2013-03-10 18:31:00,
2013-03-10 11:36:00,45.0,40.2,30.39,SW,229,0.0,1.0,83,0.00,,,0.00,WeatherCatV1.13B119,2013-03-10 18:36:00,
2013-03-10 11:41:00,45.0,40.2,30.39,SW,225,0.0,1.0,83,0.00,,,0.00,WeatherCatV1.13B119,2013-03-10 18:41:00,
2013-03-10 11:47:00,45.0,40.2,30.39,SSW,208,0.0,0.0,83,0.00,,,0.00,WeatherCatV1.13B119,2013-03-10 18:47:00,
2013-03-10 11:52:00,45.1,40.2,30.39,SW,236,1.0,2.0,83,0.00,,,0.00,WeatherCatV1.13B119,2013-03-10 18:52:00,
2013-03-10 11:57:00,44.9,40.1,30.39,SSW,208,0.0,2.0,83,0.00,,,0.00,WeatherCatV1.13B119,2013-03-10 18:57:00,
2013-03-10 12:02:00,44.8,40.0,30.39,SW,226,0.0,1.0,83,0.00,,,0.00,WeatherCatV1.13B119,2013-03-10 19:02:00,
2013-03-10 12:07:00,44.8,40.0,30.39,SW,236,0.0,2.0,83,0.00,,,0.00,WeatherCatV1.13B119,2013-03-10 19:07:00,
2013-03-10 12:12:00,44.9,40.4,30.39,SW,232,1.0,2.0,84,0.00,,,0.00,WeatherCatV1.13B119,2013-03-10 19:12:00,
2013-03-10 12:17:00,45.0,40.5,30.39,SSE,165,1.0,2.0,84,0.00,,,0.00,WeatherCatV1.13B119,2013-03-10 19:17:00,
2013-03-10 12:22:00,45.3,40.8,30.39,South,190,1.0,2.0,84,0.00,,,0.00,WeatherCatV1.13B119,2013-03-10 19:22:00,
2013-03-10 12:27:00,45.5,40.6,30.39,SW,236,2.0,3.0,83,0.00,,,0.00,WeatherCatV1.13B119,2013-03-10 19:27:00,
2013-03-10 12:32:00,45.4,40.5,30.39,SSW,201,3.0,4.0,83,0.00,,,0.00,WeatherCatV1.13B119,2013-03-10 19:32:00,
2013-03-10 12:37:00,45.5,41.0,30.39,SSW,207,3.0,4.0,84,0.00,,,0.00,WeatherCatV1.13B119,2013-03-10 19:37:00,
2013-03-10 12:41:00,45.8,41.5,30.39,South,189,2.0,4.0,85,0.00,,,0.00,WeatherCatV1.13B119,2013-03-10 19:41:00,
2013-03-10 12:46:00,45.9,41.3,30.39,SW,229,2.0,3.0,84,0.00,,,0.00,WeatherCatV1.13B119,2013-03-10 19:46:00,
2013-03-10 12:51:00,45.9,41.0,30.39,SSW,207,2.0,3.0,83,0.00,,,0.00,WeatherCatV1.13B119,2013-03-10 19:51:00,
2013-03-10 12:56:00,45.7,40.8,30.38,SW,226,4.0,5.0,83,0.00,,,0.00,WeatherCatV1.13B119,2013-03-10 19:56:00,
2013-03-10 13:01:00,45.6,41.0,30.39,SSW,211,3.0,5.0,84,0.00,,,0.00,WeatherCatV1.13B119,2013-03-10 20:01:00,
2013-03-10 13:06:00,45.8,41.2,30.38,WSW,238,5.0,5.0,84,0.00,,,0.00,WeatherCatV1.13B119,2013-03-10 20:06:00,
2013-03-10 13:11:00,45.7,41.1,30.38,WSW,240,3.0,5.0,84,0.00,,,0.00,WeatherCatV1.13B119,2013-03-10 20:11:00,
2013-03-10 13:16:00,45.6,41.4,30.38,SSW,201,3.0,6.0,85,0.00,,,0.00,WeatherCatV1.13B119,2013-03-10 20:16:00,
2013-03-10 13:21:00,45.4,41.2,30.38,WSW,248,4.0,4.0,85,0.00,,,0.00,WeatherCatV1.13B119,2013-03-10 20:21:00,
2013-03-10 13:26:00,45.2,41.0,30.38,WSW,240,3.0,6.0,85,0.00,,,0.00,WeatherCatV1.13B119,2013-03-10 20:26:00,
2013-03-10 13:31:00,45.3,41.4,30.38,West,267,2.0,5.0,86,0.00,,,0.00,WeatherCatV1.13B119,2013-03-10 20:31:00,
2013-03-10 13:36:00,45.1,40.9,30.38,SW,236,2.0,7.0,85,0.00,,,0.00,WeatherCatV1.13B119,2013-03-10 20:36:00,
2013-03-10 13:41:00,45.0,41.1,30.38,SW,225,4.0,6.0,86,0.00,,,0.00,WeatherCatV1.13B119,2013-03-10 20:41:00,
2013-03-10 13:46:00,44.9,41.0,30.38,SW,219,4.0,6.0,86,0.00,,,0.00,WeatherCatV1.13B119,2013-03-10 20:46:00,
2013-03-10 13:51:00,44.9,41.3,30.38,West,260,4.0,5.0,87,0.00,,,0.00,WeatherCatV1.13B119,2013-03-10 20:51:00,
2013-03-10 13:56:00,45.0,41.1,30.37,WSW,244,4.0,4.0,86,0.00,,,0.00,WeatherCatV1.13B119,2013-03-10 20:56:00,
2013-03-10 14:01:00,45.1,41.2,30.38,WSW,238,4.0,4.0,86,0.00,,,0.00,WeatherCatV1.13B119,2013-03-10 21:01:00,
2013-03-10 14:06:00,45.0,41.1,30.37,SW,231,6.0,6.0,86,0.00,,,0.00,WeatherCatV1.13B119,2013-03-10 21:06:00,
2013-03-10 14:11:00,44.9,41.6,30.37,South,186,1.0,4.0,88,0.00,,,0.00,WeatherCatV1.13B119,2013-03-10 21:11:00,
2013-03-10 14:16:00,44.9,41.6,30.37,South,184,2.0,4.0,88,0.00,,,0.00,WeatherCatV1.13B119,2013-03-10 21:16:00,
2013-03-10 14:21:00,44.8,41.5,30.37,SSW,208,3.0,6.0,88,0.00,,,0.00,WeatherCatV1.13B119,2013-03-10 21:21:00,
2013-03-10 14:26:00,44.7,41.7,30.36,SW,228,3.0,5.0,89,0.00,,,0.00,WeatherCatV1.13B119,2013-03-10 21:26:00,
2013-03-10 14:31:00,44.6,41.3,30.36,SW,222,4.0,4.0,88,0.00,,,0.00,WeatherCatV1.13B119,2013-03-10 21:31:00,
2013-03-10 14:36:00,44.8,41.5,30.36,WSW,238,2.0,5.0,88,0.00,,,0.00,WeatherCatV1.13B119,2013-03-10 21:36:00,
2013-03-10 14:41:00,45.0,41.7,30.37,SW,214,3.0,5.0,88,0.00,,,0.00,WeatherCatV1.13B119,2013-03-10 21:41:00,
2013-03-10 14:46:00,44.8,41.5,30.37,WSW,246,3.0,5.0,88,0.00,,,0.00,WeatherCatV1.13B119,2013-03-10 21:46:00,
2013-03-10 14:51:00,44.9,41.9,30.36,SW,224,3.0,4.0,89,0.00,,,0.00,WeatherCatV1.13B119,2013-03-10 21:51:00,
2013-03-10 14:56:00,45.1,42.1,30.36,SW,231,4.0,5.0,89,0.00,,,0.00,WeatherCatV1.13B119,2013-03-10 21:56:00,
2013-03-10 15:01:00,45.1,42.1,30.37,WSW,245,4.0,4.0,89,0.00,,,0.00,WeatherCatV1.13B119,2013-03-10 22:01:00,
2013-03-10 15:06:00,45.1,42.1,30.37,SW,235,3.0,5.0,89,0.00,,,0.00,WeatherCatV1.13B119,2013-03-10 22:06:00,
2013-03-10 15:11:00,45.5,42.2,30.36,SW,231,2.0,4.0,88,0.00,,,0.00,WeatherCatV1.13B119,2013-03-10 22:11:00,
2013-03-10 15:16:00,45.8,42.5,30.36,SSW,207,1.0,3.0,88,0.00,,,0.00,WeatherCatV1.13B119,2013-03-10 22:16:00,
2013-03-10 15:21:00,46.4,42.7,30.36,SW,224,2.0,4.0,87,0.00,,,0.00,WeatherCatV1.13B119,2013-03-10 22:21:00,
2013-03-10 15:26:00,47.0,43.0,30.36,WSW,237,3.0,3.0,86,0.00,,,0.00,WeatherCatV1.13B119,2013-03-10 22:26:00,
2013-03-10 15:31:00,47.2,43.2,30.36,WSW,245,2.0,3.0,86,0.00,,,0.00,WeatherCatV1.13B119,2013-03-10 22:31:00,
2013-03-10 15:36:00,47.4,43.1,30.36,SSE,149,2.0,4.0,85,0.00,,,0.00,WeatherCatV1.13B119,2013-03-10 22:36:00,
2013-03-10 15:41:00,46.9,42.3,30.36,SE,143,3.0,3.0,84,0.00,,,0.00,WeatherCatV1.13B119,2013-03-10 22:41:00,
2013-03-10 15:46:00,46.8,42.5,30.36,South,174,2.0,3.0,85,0.00,,,0.00,WeatherCatV1.13B119,2013-03-10 22:46:00,
2013-03-10 15:51:00,46.5,42.5,30.36,SSE,153,3.0,3.0,86,0.00,,,0.00,WeatherCatV1.13B119,2013-03-10 22:51:00,
2013-03-10 15:56:00,46.0,41.7,30.36,SW,224,3.0,4.0,85,0.00,,,0.00,WeatherCatV1.13B119,2013-03-10 22:56:00,
2013-03-10 16:01:00,45.8,41.9,30.36,SSW,212,1.0,3.0,86,0.00,,,0.00,WeatherCatV1.13B119,2013-03-10 23:01:00,
2013-03-10 16:06:00,45.9,42.0,30.36,SSW,212,1.0,2.0,86,0.00,,,0.00,WeatherCatV1.13B119,2013-03-10 23:06:00,
2013-03-10 16:11:00,45.9,42.0,30.36,SSW,200,1.0,2.0,86,0.00,,,0.00,WeatherCatV1.13B119,2013-03-10 23:11:00,
2013-03-10 16:16:00,45.6,41.7,30.36,SSE,160,0.0,1.0,86,0.00,,,0.00,WeatherCatV1.13B119,2013-03-10 23:16:00,
2013-03-10 16:21:00,45.4,41.8,30.36,South,169,2.0,2.0,87,0.00,,,0.00,WeatherCatV1.13B119,2013-03-10 23:21:00,
2013-03-10 16:26:00,45.3,41.7,30.36,SE,143,1.0,2.0,87,0.00,,,0.00,WeatherCatV1.13B119,2013-03-10 23:26:00,
2013-03-10 16:31:00,45.2,41.6,30.36,SSE,148,0.0,2.0,87,0.00,,,0.00,WeatherCatV1.13B119,2013-03-10 23:31:00,
2013-03-10 16:36:00,45.3,41.7,30.36,SSW,208,1.0,2.0,87,0.00,,,0.00,WeatherCatV1.13B119,2013-03-10 23:36:00,
2013-03-10 16:41:00,45.4,41.8,30.36,SSE,150,1.0,2.0,87,0.00,,,0.00,WeatherCatV1.13B119,2013-03-10 23:41:00,
2013-03-10 16:46:00,45.3,41.7,30.36,SW,218,2.0,3.0,87,0.00,,,0.00,WeatherCatV1.13B119,2013-03-10 23:46:00,
2013-03-10 16:51:00,45.2,41.6,30.36,WSW,238,2.0,3.0,87,0.00,,,0.00,WeatherCatV1.13B119,2013-03-10 23:51:00,
2013-03-10 16:56:00,44.9,41.6,30.36,SSE,150,1.0,2.0,88,0.00,,,0.00,WeatherCatV1.13B119,2013-03-10 23:56:00,
2013-03-10 17:01:00,45.1,41.8,30.35,WSW,245,2.0,3.0,88,0.00,,,0.00,WeatherCatV1.13B119,2013-03-11 00:01:00,
2013-03-10 17:06:00,45.1,41.8,30.35,SE,145,1.0,2.0,88,0.00,,,0.00,WeatherCatV1.13B119,2013-03-11 00:06:00,
2013-03-10 17:11:00,45.2,41.9,30.35,SW,221,2.0,2.0,88,0.00,,,0.00,WeatherCatV1.13B119,2013-03-11 00:11:00,
2013-03-10 17:16:00,45.9,42.3,30.35,South,190,2.0,2.0,87,0.00,,,0.00,WeatherCatV1.13B119,2013-03-11 00:16:00,
2013-03-10 17:21:00,46.7,42.7,30.35,SE,145,2.0,3.0,86,0.00,,,0.00,WeatherCatV1.13B119,2013-03-11 00:21:00,
2013-03-10 17:26:00,46.8,42.5,30.35,SSE,160,1.0,3.0,85,0.00,,,0.00,WeatherCatV1.13B119,2013-03-11 00:26:00,
2013-03-10 17:31:00,46.9,42.3,30.35,SSW,194,2.0,4.0,84,0.00,,,0.00,WeatherCatV1.13B119,2013-03-11 00:31:00,
2013-03-10 17:36:00,47.0,42.4,30.35,SSE,149,2.0,4.0,84,0.00,,,0.00,WeatherCatV1.13B119,2013-03-11 00:36:00,
2013-03-10 17:41:00,46.8,42.2,30.34,SSE,165,2.0,3.0,84,0.00,,,0.00,WeatherCatV1.13B119,2013-03-11 00:41:00,
2013-03-10 17:46:00,46.9,42.3,30.34,WSW,240,2.0,3.0,84,0.00,,,0.00,WeatherCatV1.13B119,2013-03-11 00:46:00,
2013-03-10 17:51:00,47.1,42.8,30.34,SSE,152,1.0,2.0,85,0.00,,,0.00,WeatherCatV1.13B119,2013-03-11 00:51:00,
2013-03-10 17:56:00,47.0,42.4,30.34,WSW,238,3.0,4.0,84,0.00,,,0.00,WeatherCatV1.13B119,2013-03-11 00:56:00,
2013-03-10 18:01:00,46.4,42.4,30.34,WSW,256,3.0,4.0,86,0.00,,,0.00,WeatherCatV1.13B119,2013-03-11 01:01:00,
2013-03-10 18:06:00,46.2,41.9,30.34,SSW,204,4.0,5.0,85,0.00,,,0.00,WeatherCatV1.13B119,2013-03-11 01:06:00,
2013-03-10 18:11:00,46.0,42.0,30.34,SW,224,5.0,6.0,86,0.00,,,0.00,WeatherCatV1.13B119,2013-03-11 01:11:00,
2013-03-10 18:16:00,45.4,41.8,30.34,WSW,248,4.0,5.0,87,0.00,,,0.00,WeatherCatV1.13B119,2013-03-11 01:16:00,
2013-03-10 18:21:00,45.2,41.6,30.34,SW,224,5.0,5.0,87,0.00,,,0.00,WeatherCatV1.13B119,2013-03-11 01:21:00,
2013-03-10 18:26:00,45.0,41.7,30.34,SW,228,3.0,4.0,88,0.00,,,0.00,WeatherCatV1.13B119,2013-03-11 01:26:00,
2013-03-10 18:31:00,44.7,41.7,30.34,SW,235,2.0,5.0,89,0.00,,,0.00,WeatherCatV1.13B119,2013-03-11 01:31:00,
2013-03-10 18:36:00,44.4,41.4,30.34,SW,229,2.0,3.0,89,0.00,,,0.00,WeatherCatV1.13B119,2013-03-11 01:36:00,
2013-03-10 18:41:00,44.2,41.2,30.34,SW,235,2.0,2.0,89,0.00,,,0.00,WeatherCatV1.13B119,2013-03-11 01:41:00,
2013-03-10 18:46:00,44.1,41.4,30.34,SW,231,0.0,1.0,90,0.00,,,0.00,WeatherCatV1.13B119,2013-03-11 01:46:00,
2013-03-10 18:51:00,43.9,41.2,30.34,WSW,241,0.0,2.0,90,0.00,,,0.00,WeatherCatV1.13B119,2013-03-11 01:51:00,
2013-03-10 18:56:00,43.7,41.2,30.34,East,92,0.0,2.0,91,0.00,,,0.00,WeatherCatV1.13B119,2013-03-11 01:56:00,
2013-03-10 19:01:00,43.5,41.0,30.34,East,92,0.0,0.0,91,0.00,,,0.00,WeatherCatV1.13B119,2013-03-11 02:01:00,
2013-03-10 19:06:00,43.4,41.0,30.34,SSE,149,1.0,1.0,91,0.00,,,0.00,WeatherCatV1.13B119,2013-03-11 02:06:00,
2013-03-10 19:11:00,43.5,41.3,30.34,SSE,155,0.0,1.0,92,0.00,,,0.00,WeatherCatV1.13B119,2013-03-11 02:11:00,
2013-03-10 19:16:00,43.5,41.0,30.34,SSE,157,0.0,2.0,91,0.00,,,0.00,WeatherCatV1.13B119,2013-03-11 02:16:00,
2013-03-10 19:21:00,43.6,41.1,30.34,SE,145,0.0,2.0,91,0.00,,,0.00,WeatherCatV1.13B119,2013-03-11 02:21:00,
2013-03-10 19:26:00,43.6,41.1,30.34,SSE,148,0.0,1.0,91,0.00,,,0.00,WeatherCatV1.13B119,2013-03-11 02:26:00,
2013-03-10 19:31:00,43.6,41.1,30.34,SE,131,0.0,1.0,91,0.00,,,0.00,WeatherCatV1.13B119,2013-03-11 02:31:00,
2013-03-10 19:36:00,43.6,41.1,30.35,SE,143,0.0,1.0,91,0.00,,,0.00,WeatherCatV1.13B119,2013-03-11 02:36:00,
2013-03-10 19:41:00,43.6,41.1,30.35,SSE,155,2.0,2.0,91,0.00,,,0.00,WeatherCatV1.13B119,2013-03-11 02:41:00,
2013-03-10 19:46:00,43.6,41.1,30.35,SE,139,0.0,0.0,91,0.00,,,0.00,WeatherCatV1.13B119,2013-03-11 02:46:00,
2013-03-10 19:51:00,43.5,41.0,30.35,SSE,160,0.0,1.0,91,0.00,,,0.00,WeatherCatV1.13B119,2013-03-11 02:51:00,
2013-03-10 19:56:00,43.4,41.0,30.35,ESE,113,0.0,1.0,91,0.00,,,0.00,WeatherCatV1.13B119,2013-03-11 02:56:00,
2013-03-10 20:01:00,43.3,40.9,30.35,East,83,0.0,2.0,91,0.00,,,0.00,WeatherCatV1.13B119,2013-03-11 03:01:00,
2013-03-10 20:06:00,43.2,40.8,30.35,SE,144,0.0,1.0,91,0.00,,,0.00,WeatherCatV1.13B119,2013-03-11 03:06:00,
2013-03-10 20:11:00,43.1,40.7,30.34,ESE,105,2.0,3.0,91,0.00,,,0.00,WeatherCatV1.13B119,2013-03-11 03:11:00,
2013-03-10 20:16:00,43.1,40.7,30.35,ENE,70,1.0,2.0,91,0.00,,,0.00,WeatherCatV1.13B119,2013-03-11 03:16:00,
2013-03-10 20:21:00,43.0,40.3,30.35,East,79,1.0,3.0,90,0.00,,,0.00,WeatherCatV1.13B119,2013-03-11 03:21:00,
2013-03-10 20:26:00,42.9,40.2,30.35,SE,125,0.0,1.0,90,0.00,,,0.00,WeatherCatV1.13B119,2013-03-11 03:26:00,
2013-03-10 20:31:00,42.8,40.1,30.35,SE,125,0.0,0.0,90,0.00,,,0.00,WeatherCatV1.13B119,2013-03-11 03:31:00,
2013-03-10 20:36:00,42.8,40.4,30.35,East,98,0.0,1.0,91,0.00,,,0.00,WeatherCatV1.13B119,2013-03-11 03:36:00,
2013-03-10 20:41:00,42.8,40.4,30.35,East,79,0.0,1.0,91,0.00,,,0.00,WeatherCatV1.13B119,2013-03-11 03:41:00,
2013-03-10 20:46:00,42.8,40.4,30.35,East,99,0.0,3.0,91,0.00,,,0.00,WeatherCatV1.13B119,2013-03-11 03:46:00,
2013-03-10 20:51:00,42.8,40.4,30.35,East,89,0.0,2.0,91,0.00,,,0.00,WeatherCatV1.13B119,2013-03-11 03:51:00,
2013-03-10 20:56:00,42.8,40.4,30.35,East,91,0.0,1.0,91,0.00,,,0.00,WeatherCatV1.13B119,2013-03-11 03:56:00,
2013-03-10 21:00:00,42.8,40.4,30.35,East,91,0.0,0.0,91,0.00,,,0.00,WeatherCatV1.13B119,2013-03-11 04:00:00,
2013-03-10 21:01:00,42.8,40.1,30.35,East,91,0.0,1.0,90,0.00,,,0.00,WeatherCatV1.13B119,2013-03-11 04:01:00,
2013-03-10 21:06:00,42.6,39.9,30.35,East,91,0.0,0.0,90,0.00,,,0.00,WeatherCatV1.13B119,2013-03-11 04:06:00,
2013-03-10 21:11:00,42.6,39.9,30.35,East,91,0.0,0.0,90,0.00,,,0.00,WeatherCatV1.13B119,2013-03-11 04:11:00,
2013-03-10 21:16:00,42.5,39.8,30.35,East,91,0.0,0.0,90,0.00,,,0.00,WeatherCatV1.13B119,2013-03-11 04:16:00,
2013-03-10 21:21:00,42.3,39.6,30.35,East,89,0.0,1.0,90,0.00,,,0.00,WeatherCatV1.13B119,2013-03-11 04:21:00,
2013-03-10 21:26:00,42.0,39.3,30.35,North,4,0.0,1.0,90,0.00,,,0.00,WeatherCatV1.13B119,2013-03-11 04:26:00,
2013-03-10 21:31:00,41.7,39.3,30.35,WNW,285,0.0,1.0,91,0.00,,,0.00,WeatherCatV1.13B119,2013-03-11 04:31:00,
2013-03-10 21:37:00,41.6,39.2,30.35,NW,305,0.0,1.0,91,0.00,,,0.00,WeatherCatV1.13B119,2013-03-11 04:37:00,
2013-03-10 21:42:00,41.3,38.9,30.34,NW,319,0.0,0.0,91,0.00,,,0.00,WeatherCatV1.13B119,2013-03-11 04:42:00,
2013-03-10 21:47:00,41.1,39.0,30.34,NW,323,0.0,0.0,92,0.00,,,0.00,WeatherCatV1.13B119,2013-03-11 04:47:00,
2013-03-10 21:51:00,41.1,39.0,30.34,North,4,0.0,1.0,92,0.00,,,0.00,WeatherCatV1.13B119,2013-03-11 04:51:00,
2013-03-10 21:56:00,41.0,38.9,30.34,WNW,288,0.0,1.0,92,0.00,,,0.00,WeatherCatV1.13B119,2013-03-11 04:56:00,
2013-03-10 22:01:00,41.0,39.1,30.34,NW,322,0.0,0.0,93,0.00,,,0.00,WeatherCatV1.13B119,2013-03-11 05:01:00,
2013-03-10 22:06:00,40.9,39.0,30.34,WNW,291,0.0,2.0,93,0.00,,,0.00,WeatherCatV1.13B119,2013-03-11 05:06:00,
2013-03-10 22:11:00,40.8,38.9,30.34,NW,310,0.0,1.0,93,0.00,,,0.00,WeatherCatV1.13B119,2013-03-11 05:11:00,
2013-03-10 22:16:00,40.7,38.8,30.34,WNW,294,1.0,2.0,93,0.00,,,0.00,WeatherCatV1.13B119,2013-03-11 05:16:00,
2013-03-10 22:21:00,40.6,38.5,30.34,NW,314,0.0,0.0,92,0.00,,,0.00,WeatherCatV1.13B119,2013-03-11 05:21:00,
2013-03-10 22:26:00,40.5,38.4,30.34,NW,314,0.0,0.0,92,0.00,,,0.00,WeatherCatV1.13B119,2013-03-11 05:26:00,
2013-03-10 22:31:00,40.2,38.1,30.34,NW,314,0.0,0.0,92,0.00,,,0.00,WeatherCatV1.13B119,2013-03-11 05:31:00,
2013-03-10 22:36:00,39.9,37.8,30.34,NW,319,0.0,0.0,92,0.00,,,0.00,WeatherCatV1.13B119,2013-03-11 05:36:00,
2013-03-10 22:41:00,39.7,37.6,30.35,WNW,297,0.0,1.0,92,0.00,,,0.00,WeatherCatV1.13B119,2013-03-11 05:41:00,
2013-03-10 22:46:00,39.7,37.8,30.35,WNW,300,0.0,1.0,93,0.00,,,0.00,WeatherCatV1.13B119,2013-03-11 05:46:00,
2013-03-10 22:51:00,39.7,37.8,30.35,WNW,297,0.0,1.0,93,0.00,,,0.00,WeatherCatV1.13B119,2013-03-11 05:51:00,
2013-03-10 22:56:00,39.7,38.1,30.35,SSW,212,0.0,0.0,94,0.00,,,0.00,WeatherCatV1.13B119,2013-03-11 05:56:00,
2013-03-10 23:01:00,39.7,38.1,30.36,NNW,327,0.0,0.0,94,0.00,,,0.00,WeatherCatV1.13B119,2013-03-11 06:01:00,
2013-03-10 23:06:00,39.7,38.1,30.36,ENE,66,0.0,1.0,94,0.00,,,0.00,WeatherCatV1.13B119,2013-03-11 06:06:00,
2013-03-10 23:11:00,39.9,38.3,30.36,WNW,294,1.0,1.0,94,0.00,,,0.00,WeatherCatV1.13B119,2013-03-11 06:11:00,
2013-03-10 23:16:00,40.1,38.5,30.36,NW,310,0.0,0.0,94,0.00,,,0.00,WeatherCatV1.13B119,2013-03-11 06:16:00,
2013-03-10 23:21:00,40.3,38.7,30.36,WNW,293,0.0,1.0,94,0.00,,,0.00,WeatherCatV1.13B119,2013-03-11 06:21:00,
2013-03-10 23:26:00,40.4,38.5,30.36,NW,311,0.0,0.0,93,0.00,,,0.00,WeatherCatV1.13B119,2013-03-11 06:26:00,
2013-03-10 23:31:00,40.4,38.3,30.36,WNW,293,0.0,1.0,92,0.00,,,0.00,WeatherCatV1.13B119,2013-03-11 06:31:00,
2013-03-10 23:36:00,40.5,38.4,30.36,WNW,288,0.0,1.0,92,0.00,,,0.00,WeatherCatV1.13B119,2013-03-11 06:36:00,
2013-03-10 23:41:00,40.6,38.5,30.36,NW,314,0.0,1.0,92,0.00,,,0.00,WeatherCatV1.13B119,2013-03-11 06:41:00,
2013-03-10 23:46:00,40.7,38.6,30.36,North,352,2.0,2.0,92,0.00,,,0.00,WeatherCatV1.13B119,2013-03-11 06:46:00,
2013-03-10 23:51:00,40.8,38.7,30.36,NW,318,0.0,2.0,92,0.00,,,0.00,WeatherCatV1.13B119,2013-03-11 06:51:00,
2013-03-10 23:56:00,40.9,38.8,30.36,WNW,300,0.0,1.0,92,0.00,,,0.00,WeatherCatV1.13B119,2013-03-11 06:56:00,